| time (UTC) | temp C | wind direction | speed KPH | gust KPH | rain 1hr cm | rain 24hr cm | rain mn cm | humidity % | barometer mb |
| 20260503055015 | 3 | 260 | 0.0 | 0.0 | 0.00 | 0.00 | 0.00 | 54 | 1018.0 |
| 20260503054510 | 3 | 260 | 0.0 | 0.0 | 0.00 | 0.00 | 0.00 | 54 | 1018.0 |
| 20260503054003 | 3 | 260 | 0.0 | 0.0 | 0.00 | 0.00 | 0.00 | 53 | 1018.1 |
| 20260503053458 | 3 | 260 | 0.0 | 0.0 | 0.00 | 0.00 | 0.00 | 53 | 1018.1 |
| 20260503052952 | 3 | 260 | 0.0 | 0.0 | 0.00 | 0.00 | 0.00 | 52 | 1018.0 |
| 20260503052716 | 3 | 260 | 0.0 | 0.0 | 0.00 | 0.00 | 0.00 | 52 | 1018.1 |
| 20260503051939 | 3 | 260 | 0.0 | 0.0 | 0.00 | 0.00 | 0.00 | 52 | 1018.1 |
| 20260503051433 | 3 | 260 | 0.0 | 0.0 | 0.00 | 0.00 | 0.00 | 52 | 1018.0 |
| 20260503051158 | 3 | 260 | 0.0 | 0.0 | 0.00 | 0.00 | 0.00 | 52 | 1018.0 |
| 20260503050420 | 3 | 260 | 0.0 | 0.0 | 0.00 | 0.00 | 0.00 | 52 | 1018.0 |
| 20260503045914 | 3 | 260 | 0.0 | 0.0 | 0.00 | 0.00 | 0.00 | 52 | 1018.1 |
| 20260503045407 | 3 | 260 | 0.0 | 0.0 | 0.00 | 0.00 | 0.00 | 52 | 1018.1 |
| 20260503044902 | 3 | 260 | 0.0 | 0.0 | 0.00 | 0.00 | 0.00 | 52 | 1018.1 |
| 20260503044626 | 3 | 260 | 0.0 | 0.0 | 0.00 | 0.00 | 0.00 | 52 | 1018.1 |
| 20260503044121 | 3 | 260 | 0.0 | 0.0 | 0.00 | 0.00 | 0.00 | 52 | 1018.1 |
| 20260503043614 | 3 | 260 | 0.0 | 0.0 | 0.00 | 0.00 | 0.00 | 52 | 1018.0 |
| 20260503042837 | 3 | 260 | 0.0 | 0.0 | 0.00 | 0.00 | 0.00 | 52 | 1018.1 |
| 20260503042331 | 3 | 260 | 0.0 | 1.6 | 0.00 | 0.00 | 0.00 | 51 | 1018.1 |
| 20260503041826 | 3 | 260 | 0.0 | 1.6 | 0.00 | 0.00 | 0.00 | 52 | 1018.1 |
| 20260503041320 | 3 | 260 | 0.0 | 1.6 | 0.00 | 0.00 | 0.00 | 51 | 1018.0 |
| 20260503040813 | 3 | 260 | 0.0 | 3.2 | 0.00 | 0.00 | 0.00 | 51 | 1018.2 |
| 20260503040308 | 3 | 260 | 0.0 | 3.2 | 0.00 | 0.00 | 0.00 | 51 | 1018.1 |
| 20260503040032 | 3 | 260 | 0.0 | 0.0 | 0.00 | 0.00 | 0.00 | 51 | 1018.1 |
| 20260503035255 | 4 | 260 | 0.0 | 1.6 | 0.00 | 0.00 | 0.00 | 51 | 1018.1 |
| 20260503034749 | 4 | 260 | 0.0 | 1.6 | 0.00 | 0.00 | 0.00 | 51 | 1018.1 |
| 20260503034515 | 4 | 260 | 0.0 | 1.6 | 0.00 | 0.00 | 0.00 | 50 | 1018.1 |
| 20260503033738 | 4 | 260 | 0.0 | 1.6 | 0.00 | 0.00 | 0.00 | 50 | 1018.1 |
| 20260503033231 | 4 | 260 | 0.0 | 1.6 | 0.00 | 0.00 | 0.00 | 50 | 1018.2 |
| 20260503032725 | 4 | 260 | 0.0 | 0.0 | 0.00 | 0.00 | 0.00 | 50 | 1018.1 |
| 20260503032219 | 4 | 260 | 0.0 | 1.6 | 0.00 | 0.00 | 0.00 | 50 | 1018.1 |
| 20260503031713 | 4 | 260 | 0.0 | 1.6 | 0.00 | 0.00 | 0.00 | 50 | 1018.2 |
| 20260503031208 | 4 | 278 | 0.0 | 0.0 | 0.00 | 0.00 | 0.00 | 49 | 1018.2 |
| 20260503030702 | 4 | 278 | 0.0 | 0.0 | 0.00 | 0.00 | 0.00 | 49 | 1018.2 |
| 20260503030426 | 5 | 278 | 0.0 | 0.0 | 0.00 | 0.00 | 0.00 | 48 | 1018.2 |
| 20260503025652 | 5 | 278 | 0.0 | 0.0 | 0.00 | 0.00 | 0.00 | 48 | 1018.2 |
| 20260503025152 | 5 | 278 | 0.0 | 0.0 | 0.00 | 0.00 | 0.00 | 47 | 1018.2 |
| 20260503024651 | 5 | 278 | 0.0 | 0.0 | 0.00 | 0.00 | 0.00 | 47 | 1018.3 |
| 20260503024152 | 5 | 278 | 0.0 | 0.0 | 0.00 | 0.00 | 0.00 | 47 | 1018.3 |
| 20260503023652 | 5 | 278 | 0.0 | 0.0 | 0.00 | 0.00 | 0.00 | 47 | 1018.4 |
| 20260503023150 | 5 | 278 | 0.0 | 0.0 | 0.00 | 0.00 | 0.00 | 46 | 1018.3 |
| 20260503022918 | 5 | 278 | 0.0 | 0.0 | 0.00 | 0.00 | 0.00 | 45 | 1018.3 |
| 20260503022148 | 6 | 278 | 0.0 | 0.0 | 0.00 | 0.00 | 0.00 | 45 | 1018.3 |
| 20260503021919 | 6 | 278 | 0.0 | 0.0 | 0.00 | 0.00 | 0.00 | 45 | 1018.3 |
| 20260503021145 | 6 | 278 | 0.0 | 0.0 | 0.00 | 0.00 | 0.00 | 45 | 1018.2 |
| 20260503020644 | 6 | 278 | 0.0 | 0.0 | 0.00 | 0.00 | 0.00 | 44 | 1018.2 |
| 20260503020144 | 6 | 278 | 0.0 | 0.0 | 0.00 | 0.00 | 0.00 | 44 | 1018.2 |
| 20260503015644 | 6 | 278 | 0.0 | 0.0 | 0.00 | 0.00 | 0.00 | 44 | 1018.2 |
| 20260503015143 | 6 | 278 | 0.0 | 0.0 | 0.00 | 0.00 | 0.00 | 44 | 1018.2 |
| 20260503014645 | 6 | 278 | 0.0 | 0.0 | 0.00 | 0.00 | 0.00 | 43 | 1018.2 |
| 20260503014142 | 6 | 278 | 0.0 | 0.0 | 0.00 | 0.00 | 0.00 | 43 | 1018.1 |
| 20260503013642 | 6 | 278 | 0.0 | 0.0 | 0.00 | 0.00 | 0.00 | 43 | 1018.1 |
| 20260503013139 | 6 | 278 | 0.0 | 0.0 | 0.00 | 0.00 | 0.00 | 42 | 1018.1 |
| 20260503012643 | 6 | 278 | 0.0 | 0.0 | 0.00 | 0.00 | 0.00 | 42 | 1018.1 |
| 20260503012140 | 6 | 278 | 0.0 | 0.0 | 0.00 | 0.00 | 0.00 | 42 | 1018.0 |
| 20260503011910 | 6 | 278 | 0.0 | 0.0 | 0.00 | 0.00 | 0.00 | 42 | 1018.0 |
| 20260503011134 | 6 | 278 | 0.0 | 0.0 | 0.00 | 0.00 | 0.00 | 42 | 1018.1 |
| 20260503010634 | 7 | 278 | 0.0 | 0.0 | 0.00 | 0.00 | 0.00 | 42 | 1018.0 |
| 20260503010131 | 7 | 278 | 0.0 | 0.0 | 0.00 | 0.00 | 0.00 | 41 | 1018.1 |
| 20260503005633 | 7 | 278 | 0.0 | 0.0 | 0.00 | 0.00 | 0.00 | 40 | 1017.9 |
| 20260503005131 | 7 | 278 | 0.0 | 0.0 | 0.00 | 0.00 | 0.00 | 41 | 1017.9 |
| 20260503004631 | 7 | 278 | 0.0 | 0.0 | 0.00 | 0.00 | 0.00 | 40 | 1017.9 |
| 20260503004131 | 7 | 278 | 0.0 | 0.0 | 0.00 | 0.00 | 0.00 | 39 | 1017.9 |
| 20260503003903 | 7 | 278 | 0.0 | 0.0 | 0.00 | 0.00 | 0.00 | 39 | 1018.0 |
| 20260503003403 | 7 | 278 | 0.0 | 1.6 | 0.00 | 0.00 | 0.00 | 37 | 1017.9 |
| 20260503002629 | 7 | 278 | 0.0 | 1.6 | 0.00 | 0.00 | 0.00 | 36 | 1017.9 |
| 20260503002129 | 7 | 278 | 0.0 | 0.0 | 0.00 | 0.00 | 0.00 | 35 | 1018.0 |
| 20260503001630 | 7 | 278 | 0.0 | 3.2 | 0.00 | 0.00 | 0.00 | 36 | 1017.9 |
| 20260503001128 | 8 | 278 | 0.0 | 3.2 | 0.00 | 0.00 | 0.00 | 36 | 1017.8 |
| 20260503000626 | 8 | 278 | 0.0 | 4.8 | 0.00 | 0.00 | 0.00 | 35 | 1017.9 |
| 20260503000123 | 8 | 278 | 1.6 | 8.0 | 0.00 | 0.00 | 0.00 | 33 | 1017.8 |
| 20260502235624 | 8 | 315 | 1.6 | 8.0 | 0.00 | 0.00 | 0.00 | 34 | 1017.7 |
| 20260502235353 | 8 | 304 | 1.6 | 6.4 | 0.00 | 0.00 | 0.00 | 34 | 1017.9 |
| 20260502234850 | 8 | 318 | 1.6 | 9.7 | 0.00 | 0.00 | 0.00 | 34 | 1017.8 |
| 20260502234350 | 8 | 351 | 3.2 | 9.7 | 0.00 | 0.00 | 0.00 | 33 | 1017.8 |
| 20260502233620 | 8 | 333 | 3.2 | 11.3 | 0.00 | 0.00 | 0.00 | 32 | 1017.8 |
| 20260502233120 | 8 | 351 | 4.8 | 12.9 | 0.00 | 0.00 | 0.00 | 32 | 1017.8 |
| 20260502232619 | 8 | 315 | 4.8 | 12.9 | 0.00 | 0.00 | 0.00 | 32 | 1017.9 |
| 20260502232119 | 8 | 296 | 3.2 | 12.9 | 0.00 | 0.00 | 0.00 | 33 | 1017.9 |
| 20260502231616 | 8 | 306 | 1.6 | 8.0 | 0.00 | 0.03 | 0.00 | 34 | 1017.9 |
| 20260502231115 | 8 | 306 | 3.2 | 8.0 | 0.00 | 0.03 | 0.00 | 33 | 1017.9 |
| 20260502230615 | 8 | 349 | 3.2 | 12.9 | 0.00 | 0.03 | 0.00 | 33 | 1017.9 |
| 20260502230116 | 8 | 337 | 3.2 | 12.9 | 0.00 | 0.03 | 0.00 | 33 | 1017.9 |
| 20260502225615 | 8 | 344 | 3.2 | 14.5 | 0.00 | 0.03 | 0.00 | 33 | 1017.9 |
| 20260502225347 | 8 | 325 | 4.8 | 14.5 | 0.00 | 0.03 | 0.00 | 34 | 1018.0 |
| 20260502224615 | 8 | 291 | 4.8 | 14.5 | 0.00 | 0.03 | 0.00 | 32 | 1017.9 |
| 20260502224116 | 8 | 5 | 4.8 | 14.5 | 0.00 | 0.03 | 0.00 | 34 | 1018.0 |
| 20260502223615 | 8 | 305 | 8.0 | 19.3 | 0.00 | 0.03 | 0.00 | 35 | 1018.0 |
| 20260502223116 | 8 | 337 | 8.0 | 19.3 | 0.00 | 0.03 | 0.00 | 32 | 1018.0 |
| 20260502222846 | 8 | 270 | 4.8 | 14.5 | 0.00 | 0.03 | 0.00 | 34 | 1018.1 |
| 20260502222115 | 8 | 318 | 3.2 | 12.9 | 0.00 | 0.03 | 0.00 | 35 | 1018.0 |
| 20260502221615 | 8 | 332 | 3.2 | 11.3 | 0.00 | 0.03 | 0.00 | 35 | 1018.0 |
| 20260502221115 | 8 | 336 | 4.8 | 16.1 | 0.00 | 0.03 | 0.00 | 34 | 1018.0 |
| 20260502220615 | 8 | 355 | 6.4 | 16.1 | 0.00 | 0.03 | 0.00 | 34 | 1018.1 |
| 20260502220118 | 8 | 294 | 4.8 | 12.9 | 0.00 | 0.03 | 0.00 | 34 | 1018.0 |
| 20260502215617 | 8 | 289 | 4.8 | 12.9 | 0.00 | 0.03 | 0.00 | 33 | 1018.0 |
| 20260502215118 | 8 | 336 | 4.8 | 11.3 | 0.00 | 0.03 | 0.00 | 33 | 1018.0 |
| 20260502214617 | 8 | 322 | 4.8 | 11.3 | 0.00 | 0.03 | 0.00 | 34 | 1018.0 |
| 20260502214118 | 8 | 297 | 4.8 | 12.9 | 0.00 | 0.03 | 0.00 | 36 | 1018.1 |
| 20260502213615 | 8 | 311 | 4.8 | 14.5 | 0.00 | 0.03 | 0.00 | 34 | 1018.0 |
| 20260502213116 | 8 | 334 | 6.4 | 17.7 | 0.00 | 0.03 | 0.00 | 34 | 1018.0 |
| 20260502212616 | 8 | 331 | 8.0 | 17.7 | 0.00 | 0.03 | 0.00 | 35 | 1018.0 |
| 20260502212116 | 8 | 355 | 8.0 | 17.7 | 0.00 | 0.03 | 0.00 | 35 | 1018.0 |
| 20260502211844 | 8 | 320 | 6.4 | 17.7 | 0.00 | 0.03 | 0.00 | 33 | 1018.0 |
| 20260502211113 | 8 | 331 | 4.8 | 14.5 | 0.00 | 0.03 | 0.00 | 37 | 1017.9 |
| 20260502210611 | 8 | 345 | 4.8 | 14.5 | 0.00 | 0.03 | 0.00 | 35 | 1017.9 |
| 20260502210109 | 8 | 319 | 4.8 | 14.5 | 0.00 | 0.03 | 0.00 | 35 | 1018.0 |
| 20260502205608 | 8 | 302 | 4.8 | 14.5 | 0.00 | 0.03 | 0.00 | 34 | 1017.9 |
| 20260502205101 | 8 | 308 | 4.8 | 17.7 | 0.00 | 0.03 | 0.00 | 35 | 1017.9 |
| 20260502204557 | 8 | 308 | 6.4 | 17.7 | 0.00 | 0.03 | 0.00 | 33 | 1018.0 |
| 20260502204055 | 8 | 349 | 6.4 | 17.7 | 0.00 | 0.03 | 0.00 | 33 | 1018.0 |
| 20260502203555 | 8 | 331 | 6.4 | 17.7 | 0.00 | 0.03 | 0.00 | 35 | 1018.0 |
| 20260502203053 | 8 | 307 | 4.8 | 17.7 | 0.00 | 0.03 | 0.00 | 35 | 1018.0 |
| 20260502202554 | 8 | 340 | 3.2 | 11.3 | 0.00 | 0.03 | 0.00 | 35 | 1018.0 |
| 20260502202051 | 8 | 257 | 4.8 | 14.5 | 0.00 | 0.03 | 0.00 | 37 | 1018.1 |
| 20260502201554 | 8 | 325 | 6.4 | 14.5 | 0.00 | 0.03 | 0.00 | 35 | 1018.1 |
| 20260502201051 | 8 | 324 | 4.8 | 14.5 | 0.00 | 0.03 | 0.00 | 36 | 1018.1 |
| 20260502200820 | 8 | 335 | 4.8 | 12.9 | 0.00 | 0.03 | 0.00 | 36 | 1018.1 |
| 20260502200047 | 8 | 255 | 6.4 | 14.5 | 0.00 | 0.03 | 0.00 | 34 | 1018.2 |
| 20260502195818 | 7 | 346 | 6.4 | 19.3 | 0.00 | 0.03 | 0.00 | 34 | 1018.2 |
| 20260502195047 | 7 | 5 | 6.4 | 19.3 | 0.00 | 0.03 | 0.00 | 34 | 1018.3 |
| 20260502194547 | 7 | 5 | 4.8 | 16.1 | 0.00 | 0.03 | 0.00 | 36 | 1018.4 |
| 20260502194047 | 7 | 343 | 4.8 | 16.1 | 0.00 | 0.03 | 0.00 | 36 | 1018.3 |
| 20260502193548 | 7 | 327 | 6.4 | 14.5 | 0.00 | 0.03 | 0.00 | 37 | 1018.4 |
| 20260502193045 | 8 | 13 | 6.4 | 17.7 | 0.00 | 0.03 | 0.00 | 36 | 1018.5 |
| 20260502192545 | 8 | 298 | 6.4 | 17.7 | 0.00 | 0.03 | 0.00 | 35 | 1018.3 |
| 20260502192047 | 8 | 259 | 6.4 | 14.5 | 0.00 | 0.03 | 0.00 | 35 | 1018.5 |
| 20260502191541 | 8 | 290 | 6.4 | 14.5 | 0.00 | 0.03 | 0.00 | 34 | 1018.6 |
| 20260502191035 | 8 | 279 | 6.4 | 14.5 | 0.00 | 0.03 | 0.00 | 39 | 1018.5 |
| 20260502190529 | 8 | 341 | 6.4 | 14.5 | 0.00 | 0.03 | 0.00 | 36 | 1018.6 |
| 20260502190023 | 8 | 5 | 4.8 | 14.5 | 0.00 | 0.03 | 0.00 | 37 | 1018.6 |
| 20260502185518 | 8 | 311 | 4.8 | 16.1 | 0.00 | 0.03 | 0.00 | 39 | 1018.7 |
| 20260502185011 | 8 | 293 | 6.4 | 16.1 | 0.00 | 0.03 | 0.00 | 36 | 1018.7 |
| 20260502184505 | 7 | 333 | 6.4 | 14.5 | 0.00 | 0.03 | 0.00 | 35 | 1018.7 |
| 20260502183958 | 8 | 280 | 6.4 | 14.5 | 0.00 | 0.03 | 0.00 | 35 | 1018.7 |
| 20260502183453 | 8 | 342 | 6.4 | 14.5 | 0.00 | 0.03 | 0.00 | 34 | 1018.7 |
| 20260502183217 | 8 | 286 | 6.4 | 16.1 | 0.00 | 0.03 | 0.00 | 37 | 1018.7 |
| 20260502182441 | 8 | 312 | 4.8 | 16.1 | 0.00 | 0.03 | 0.00 | 37 | 1018.8 |
| 20260502182206 | 8 | 344 | 4.8 | 16.1 | 0.00 | 0.03 | 0.00 | 37 | 1018.8 |
| 20260502181429 | 7 | 348 | 8.0 | 17.7 | 0.00 | 0.03 | 0.00 | 36 | 1018.8 |
| 20260502180923 | 8 | 309 | 8.0 | 17.7 | 0.00 | 0.03 | 0.00 | 35 | 1018.9 |
| 20260502180417 | 8 | 311 | 6.4 | 16.1 | 0.00 | 0.03 | 0.00 | 34 | 1018.9 |
| 20260502170305 | 7 | 327 | 4.8 | 12.9 | 0.00 | 0.03 | 0.00 | 37 | 1019.3 |
| 20260502164241 | 7 | 339 | 4.8 | 12.9 | 0.00 | 0.03 | 0.00 | 38 | 1019.4 |
| 20260502163735 | 7 | 346 | 6.4 | 14.5 | 0.00 | 0.03 | 0.00 | 36 | 1019.4 |
| 20260502163229 | 8 | 349 | 4.8 | 16.1 | 0.00 | 0.03 | 0.00 | 37 | 1019.5 |
| 20260502162723 | 8 | 313 | 4.8 | 14.5 | 0.00 | 0.03 | 0.00 | 41 | 1019.5 |
| 20260502162216 | 7 | 303 | 4.8 | 9.7 | 0.00 | 0.03 | 0.00 | 38 | 1019.5 |
| 20260502161941 | 7 | 337 | 6.4 | 17.7 | 0.00 | 0.03 | 0.00 | 40 | 1019.5 |
| 20260502161205 | 7 | 5 | 6.4 | 17.7 | 0.00 | 0.03 | 0.00 | 40 | 1019.8 |
| 20260502160659 | 7 | 348 | 4.8 | 14.5 | 0.00 | 0.03 | 0.00 | 39 | 1019.7 |
| 20260502160153 | 7 | 346 | 6.4 | 14.5 | 0.00 | 0.03 | 0.00 | 40 | 1019.8 |
| 20260502152105 | 7 | 290 | 6.4 | 17.7 | 0.00 | 0.03 | 0.00 | 43 | 1019.6 |
| 20260502151559 | 7 | 277 | 3.2 | 17.7 | 0.00 | 0.03 | 0.00 | 43 | 1019.6 |
| 20260502151324 | 7 | 300 | 4.8 | 14.5 | 0.00 | 0.03 | 0.00 | 42 | 1019.6 |
| 20260502150551 | 7 | 329 | 4.8 | 14.5 | 0.00 | 0.03 | 0.00 | 43 | 1019.7 |
| 20260502130537 | 3 | 330 | 4.8 | 11.3 | 0.00 | 0.23 | 0.00 | 53 | 1019.3 |
| 20260502123535 | 2 | 0 | 1.6 | 8.0 | 0.00 | 0.36 | 0.00 | 56 | 1018.9 |
| 20260502123033 | 2 | 327 | 1.6 | 6.4 | 0.00 | 0.38 | 0.00 | 56 | 1018.7 |
| 20260502122804 | 2 | 333 | 3.2 | 11.3 | 0.00 | 0.41 | 0.00 | 57 | 1018.8 |
| 20260502122306 | 2 | 342 | 4.8 | 12.9 | 0.00 | 0.43 | 0.00 | 56 | 1018.7 |
| 20260502121535 | 1 | 328 | 4.8 | 14.5 | 0.00 | 0.46 | 0.00 | 56 | 1018.7 |
| 20260502121035 | 1 | 317 | 3.2 | 14.5 | 0.00 | 0.48 | 0.00 | 57 | 1018.6 |
| 20260502120534 | 1 | 339 | 3.2 | 11.3 | 0.00 | 0.51 | 0.00 | 57 | 1018.5 |
| 20260502115803 | 1 | 327 | 3.2 | 12.9 | 0.00 | 0.51 | 0.00 | 57 | 1018.6 |
| 20260502115033 | 1 | 309 | 3.2 | 12.9 | 0.00 | 0.51 | 0.00 | 57 | 1018.6 |
| 20260502114533 | 1 | 327 | 3.2 | 9.7 | 0.00 | 0.53 | 0.00 | 58 | 1018.6 |
| 20260502114033 | 0 | 347 | 1.6 | 8.0 | 0.00 | 0.56 | 0.00 | 59 | 1018.8 |
| 20260502114029 | 1 | 338 | 1.6 | 12.9 | 0.00 | 0.53 | 0.00 | 59 | 1018.7 |
| 20260502113029 | 0 | 280 | 1.6 | 6.4 | 0.00 | 0.58 | 0.00 | 60 | 1018.7 |
| 20260502112527 | 0 | 345 | 1.6 | 4.8 | 0.00 | 0.61 | 0.00 | 60 | 1018.7 |
| 20260502112257 | 0 | 336 | 0.0 | 3.2 | 0.00 | 0.64 | 0.00 | 60 | 1018.6 |
| 20260502111527 | 0 | 338 | 0.0 | 3.2 | 0.00 | 0.66 | 0.00 | 61 | 1018.7 |
| 20260502111027 | 0 | 317 | 0.0 | 3.2 | 0.00 | 0.69 | 0.00 | 61 | 1018.5 |
| 20260502110526 | 0 | 317 | 0.0 | 4.8 | 0.00 | 0.71 | 0.00 | 61 | 1018.4 |
| 20260502110257 | 0 | 317 | 0.0 | 4.8 | 0.00 | 0.74 | 0.00 | 61 | 1018.4 |
| 20260502105522 | 0 | 317 | 0.0 | 1.6 | 0.00 | 0.76 | 0.00 | 61 | 1018.5 |
| 20260502105254 | 0 | 311 | 0.0 | 3.2 | 0.00 | 0.79 | 0.00 | 61 | 1018.4 |
| 20260502104523 | 0 | 297 | 0.0 | 3.2 | 0.00 | 0.81 | 0.00 | 61 | 1018.3 |
| 20260502104254 | 0 | 296 | 0.0 | 0.0 | 0.00 | 0.84 | 0.00 | 61 | 1018.3 |
| 20260502103522 | 0 | 296 | 0.0 | 1.6 | 0.00 | 0.84 | 0.00 | 61 | 1018.3 |
| 20260502103022 | 0 | 296 | 0.0 | 3.2 | 0.00 | 0.86 | 0.00 | 61 | 1018.2 |
| 20260502102754 | 0 | 296 | 0.0 | 3.2 | 0.00 | 0.86 | 0.00 | 61 | 1018.1 |
| 20260502102023 | 0 | 295 | 0.0 | 1.6 | 0.00 | 0.86 | 0.00 | 61 | 1018.2 |
| 20260502101523 | 0 | 295 | 0.0 | 3.2 | 0.00 | 0.86 | 0.00 | 61 | 1018.2 |
| 20260502101018 | 0 | 295 | 0.0 | 3.2 | 0.00 | 0.86 | 0.00 | 61 | 1018.1 |
| 20260502100518 | 0 | 295 | 0.0 | 3.2 | 0.00 | 0.89 | 0.00 | 61 | 1018.1 |
| 20260502091508 | 0 | 295 | 0.0 | 1.6 | 0.00 | 0.89 | 0.00 | 59 | 1018.0 |
| 20260502091010 | 0 | 295 | 0.0 | 0.0 | 0.00 | 0.89 | 0.00 | 59 | 1018.0 |
| 20260502090504 | 0 | 295 | 0.0 | 0.0 | 0.00 | 0.89 | 0.00 | 59 | 1018.1 |
| 20260502090226 | 1 | 295 | 0.0 | 0.0 | 0.00 | 0.89 | 0.00 | 58 | 1018.1 |
| 20260502070915 | 2 | 308 | 1.6 | 9.7 | 0.00 | 0.94 | 0.00 | 57 | 1017.9 |
| 20260502070410 | 1 | 320 | 1.6 | 9.7 | 0.00 | 0.94 | 0.00 | 58 | 1018.0 |
| 20260502065904 | 1 | 308 | 0.0 | 1.6 | 0.00 | 0.94 | 0.00 | 59 | 1018.1 |
| 20260502065358 | 2 | 308 | 0.0 | 3.2 | 0.00 | 0.94 | 0.00 | 59 | 1018.1 |
| 20260502064851 | 2 | 308 | 0.0 | 3.2 | 0.00 | 0.94 | 0.00 | 59 | 1018.1 |
| 20260502064345 | 2 | 306 | 0.0 | 0.0 | 0.00 | 0.94 | 0.00 | 59 | 1018.0 |
| 20260502063840 | 2 | 306 | 0.0 | 0.0 | 0.00 | 0.94 | 0.00 | 59 | 1018.1 |
| 20260502063334 | 2 | 306 | 0.0 | 0.0 | 0.00 | 0.94 | 0.00 | 59 | 1018.1 |